[[{"header":{"parameterUnit":"m.s-1","parameterCategory":2,"la1":30.2991,"la2":30.254,"lo1":-89.0895,"lo2":-89.0444,"dy":0.0017,"dx":0.0017,"nx":28,"ny":28,"refTime":"2024-08-05T03:00:00:Z","depth":"0","parameterNumber":2,"parameterNumberName":"U-component_of_CURRENTS"},"data":[0,0,0,0,0,0,0,0,0,0,0,0,0,0,0,0,0,0,0,0,0,0,0,0,0,0,0,0,0,0,0,0,0,0,0,0,0,0,0,0,0,0,0,0,0,0,0,0,0,0,0,0,0,0,0,0,0,0,-0.2369,-0.2369,0,-0.2353,-0.2352,-0.2352,-0.2343,-0.2343,-0.2343,-0.2343,-0.2431,-0.2433,-0.2435,0,0,0,0,0,0,0,0,0,0,0,0,0,-0.2363,-0.2363,-0.2369,-0.2369,-0.2369,-0.2353,-0.2352,-0.2352,-0.2343,-0.2343,-0.2343,-0.2343,-0.243,-0.2433,-0.2436,0,0,0,0,0,0,0,0,0,0,0,0,0,-0.2357,-0.2363,-0.2369,-0.2363,-0.2363,-0.2353,-0.2352,-0.2352,-0.2343,-0.2343,-0.2343,-0.2343,-0.2429,-0.2433,-0.2436,-0.2454,0,0,-0.2446,-0.2448,0,0,0,0,0,0,0,0,-0.2357,-0.2357,-0.2364,-0.2364,-0.2363,-0.2351,-0.2382,-0.2392,-0.2343,-0.2349,-0.2343,-0.2344,-0.2415,-0.2419,-0.2413,-0.2458,-0.2462,-0.2446,-0.2449,-0.245,-0.2451,0,0,0,0,0,0,0,-0.2357,-0.2357,-0.2361,-0.2364,-0.2363,-0.2351,-0.2351,-0.2383,-0.2383,-0.2349,-0.2348,-0.2348,-0.2415,-0.2409,-0.2415,-0.2463,-0.2446,-0.2449,-0.2451,-0.2453,-0.2545,-0.2546,0,0,0,0,0,0,-0.2363,-0.2358,-0.2362,-0.2361,-0.2362,-0.2351,-0.2351,-0.2354,-0.238,-0.2383,-0.2348,-0.2348,-0.2403,-0.2411,-0.2418,-0.2462,-0.245,-0.2453,-0.2455,-0.2545,-0.2545,-0.2546,0,0,0,0,0,0,-0.2363,-0.2364,-0.2363,-0.236,-0.2359,-0.2352,-0.2355,-0.2353,-0.2347,-0.2378,-0.2384,-0.2344,-0.2404,-0.2413,-0.2449,-0.2465,-0.2455,-0.2458,-0.2544,-0.2545,-0.2546,-0.2538,0,0,0,0,0,0,-0.2363,-0.2364,-0.2363,-0.236,-0.2359,-0.2372,-0.2355,-0.2353,-0.2348,-0.2347,-0.2377,-0.2385,-0.2405,-0.2444,-0.2452,-0.2469,-0.246,-0.2544,-0.2545,-0.2545,-0.2537,-0.2538,-0.2538,0,0,0,0,0,-0.2363,-0.2365,-0.2363,-0.2363,-0.236,-0.2373,-0.2372,-0.2365,-0.2348,-0.2357,-0.2367,-0.2384,-0.2455,-0.2447,-0.2457,-0.2475,-0.2543,-0.2544,-0.2545,-0.2537,-0.2538,-0.2538,0,0,0,0,0,0,-0.2358,-0.2364,-0.2362,-0.2364,-0.2375,-0.2372,-0.2369,-0.2364,-0.2374,-0.2368,-0.2391,-0.2401,-0.2443,-0.2456,-0.2446,-0.2503,-0.2502,-0.2505,-0.2492,-0.2493,-0.2494,-0.2502,-0.2463,0,0,0,0,0,-0.2357,-0.2362,-0.237,-0.2373,-0.2374,-0.2369,-0.2368,-0.2368,-0.2376,-0.2378,-0.2401,-0.2423,-0.2453,-0.2469,-0.2504,-0.2531,-0.2533,-0.2549,-0.2549,-0.255,-0.2563,-0.2565,-0.2567,-0.2549,-0.2549,-0.2549,0,0,-0.2354,-0.2359,-0.236,-0.2373,-0.237,-0.2385,-0.2369,-0.2371,-0.2385,-0.239,-0.2415,-0.2434,-0.2463,-0.2498,-0.2517,-0.2511,-0.2552,-0.2551,-0.2551,-0.2564,-0.2567,-0.2568,-0.257,-0.255,-0.255,-0.2549,0,0,-0.2356,-0.2356,-0.2362,-0.2373,-0.238,-0.2387,-0.2389,-0.2394,-0.2398,-0.2422,-0.2431,-0.2455,-0.2496,-0.2521,-0.2536,-0.256,-0.2561,-0.2568,-0.2572,-0.2574,-0.2575,-0.2577,-0.2563,-0.2564,-0.256,-0.256,-0.256,0,-0.2352,-0.2359,-0.2367,-0.2379,-0.2386,-0.2391,-0.2403,-0.2413,-0.2433,-0.2448,-0.2435,-0.2488,-0.251,-0.2552,-0.2555,-0.2564,-0.2555,-0.2565,-0.2574,-0.2575,-0.2577,-0.2563,-0.2563,-0.2559,-0.2559,-0.2559,-0.2559,0,-0.2355,-0.2367,-0.237,-0.2392,-0.241,-0.2417,-0.244,-0.2462,-0.2463,-0.2475,-0.2513,-0.2526,-0.256,-0.2563,-0.2565,-0.2592,-0.2578,-0.2578,-0.2569,-0.2578,-0.2563,-0.2563,-0.2559,-0.2559,-0.2559,-0.2559,0,0,-0.2328,-0.2364,-0.2366,-0.2385,-0.2412,-0.2431,-0.2467,-0.2505,-0.2537,-0.2541,-0.2574,-0.2599,-0.2597,-0.2614,-0.2615,-0.2607,-0.2599,-0.2591,-0.2591,-0.2573,-0.2586,-0.25,-0.2492,-0.2591,-0.2592,-0.2592,-0.2564,0,-0.2325,-0.2348,-0.2372,-0.2411,-0.2423,-0.2459,-0.2506,-0.2546,-0.2571,-0.2613,-0.2612,-0.2647,-0.2618,-0.2628,-0.2617,-0.2618,-0.2603,-0.2606,-0.2586,-0.2585,-0.2504,-0.2491,-0.2367,-0.2325,-0.2564,-0.2564,-0.2564,0,-0.2306,-0.2333,-0.2353,-0.243,-0.2441,-0.2473,-0.2547,-0.2594,-0.2659,-0.2676,-0.2694,-0.27,-0.2705,-0.2672,-0.2651,-0.265,-0.262,-0.2601,-0.26,-0.2527,-0.25,-0.236,-0.2317,-0.2298,-0.2565,-0.2565,-0.2565,0,-0.2264,-0.2322,-0.2338,-0.2354,-0.2438,-0.2469,-0.2527,-0.2605,-0.2659,-0.2713,-0.2744,-0.2747,-0.2756,-0.2715,-0.2676,-0.266,-0.2646,-0.2623,-0.2515,-0.2508,-0.2406,-0.2389,-0.234,-0.2605,-0.2605,-0.2606,-0.2606,0,-0.2241,-0.2258,-0.232,-0.2329,-0.239,-0.2457,-0.2537,-0.2595,-0.2685,-0.2753,-0.2768,-0.2795,-0.2766,-0.2755,-0.2697,-0.2605,-0.2661,-0.2514,-0.2496,-0.2396,-0.238,-0.2361,-0.2391,-0.2604,-0.2605,-0.2605,-0.2605,0,-0.2184,-0.2217,-0.2244,-0.2326,-0.2364,-0.2405,-0.2544,-0.262,-0.2692,-0.2775,-0.279,-0.2835,-0.2789,-0.2753,-0.2702,-0.2632,-0.2504,-0.2519,-0.2396,-0.2362,-0.2194,-0.2228,-0.2172,-0.2111,-0.2363,-0.2361,-0.2359,0,-0.2162,-0.2156,-0.2224,-0.2269,-0.2304,-0.2394,-0.2485,-0.2599,-0.2683,-0.2788,-0.2827,-0.2817,-0.2754,-0.2646,-0.2536,-0.2402,-0.2419,-0.2253,-0.2194,-0.2163,-0.2189,-0.2211,-0.2166,-0.2052,-0.2048,-0.2044,-0.2041,0,-0.2113,-0.2111,-0.2142,-0.2217,-0.2296,-0.2392,-0.2515,-0.2556,-0.2698,-0.2707,-0.2688,-0.2625,-0.2563,-0.2357,-0.2258,-0.2176,-0.2181,-0.2173,-0.2179,-0.1969,-0.1954,-0.1893,-0.2099,-0.201,-0.2013,-0.2015,-0.2017,-0.2018,-0.2072,-0.2064,-0.2093,-0.2163,-0.2262,-0.2327,-0.234,-0.243,-0.2435,-0.2402,-0.2476,-0.2329,-0.2253,-0.2035,-0.1974,-0.185,-0.1913,-0.1773,-0.1825,-0.1856,-0.1771,-0.1897,-0.1766,-0.1767,-0.1769,-0.177,-0.1771,0,-0.2025,-0.2012,-0.2062,-0.2112,-0.2175,-0.2245,-0.233,-0.2269,-0.2161,-0.2161,-0.2051,-0.1936,-0.1762,-0.174,-0.1627,-0.154,-0.1508,-0.1526,-0.154,-0.1515,-0.1641,-0.1599,-0.138,-0.138,-0.138,-0.138,-0.138,-0.138,-0.1997,-0.198,-0.198,-0.2001,-0.2045,-0.2034,-0.202,-0.1868,-0.1815,-0.1608,-0.1557,-0.1583,-0.1591,-0.1649,-0.1525,-0.1439,-0.1422,-0.1358,-0.1417,-0.1527,-0.1555,-0.1582,-0.1547,-0.1321,-0.1321,-0.1205,-0.1205,-0.1204]},{"header":{"parameterUnit":"m.s-1","parameterCategory":2,"la1":30.2991,"la2":30.254,"lo1":-89.0895,"lo2":-89.0444,"dy":0.0017,"dx":0.0017,"nx":28,"ny":28,"refTime":"2024-08-05T03:00:00:Z","depth":"0","parameterNumber":3,"parameterNumberName":"V-component_of_CURRENTS"},"data":[0,0,0,0,0,0,0,0,0,0,0,0,0,0,0,0,0,0,0,0,0,0,0,0,0,0,0,0,0,0,0,0,0,0,0,0,0,0,0,0,0,0,0,0,0,0,0,0,0,0,0,0,0,0,0,0,0,0,-0.0377,-0.0376,0,-0.0271,-0.027,-0.0269,-0.0212,-0.0212,-0.0211,-0.0211,-0.0166,-0.0165,-0.0164,0,0,0,0,0,0,0,0,0,0,0,0,0,-0.0603,-0.0599,-0.0377,-0.0376,-0.0374,-0.0271,-0.027,-0.0269,-0.0212,-0.0212,-0.0211,-0.021,-0.0166,-0.0165,-0.0164,0,0,0,0,0,0,0,0,0,0,0,0,0,-0.0506,-0.0598,-0.0378,-0.033,-0.0324,-0.0271,-0.027,-0.0269,-0.0212,-0.0212,-0.0211,-0.021,-0.0166,-0.0165,-0.0164,-0.0174,0,0,-0.0161,-0.0161,0,0,0,0,0,0,0,0,-0.0511,-0.0498,-0.0338,-0.0333,-0.0326,-0.025,-0.0333,-0.0239,-0.0213,-0.026,-0.0211,-0.021,-0.0197,-0.0194,-0.0181,-0.0172,-0.017,-0.0161,-0.016,-0.016,-0.016,0,0,0,0,0,0,0,-0.0518,-0.0503,-0.034,-0.0337,-0.0329,-0.0338,-0.0323,-0.0315,-0.0239,-0.0255,-0.025,-0.0231,-0.0195,-0.0182,-0.018,-0.017,-0.0161,-0.016,-0.016,-0.0159,-0.0153,-0.0154,0,0,0,0,0,0,-0.0518,-0.0508,-0.0343,-0.0336,-0.0413,-0.0334,-0.0317,-0.0279,-0.0238,-0.0229,-0.0232,-0.0229,-0.0184,-0.0181,-0.0178,-0.0187,-0.016,-0.0159,-0.0158,-0.0153,-0.0153,-0.0154,0,0,0,0,0,0,-0.0523,-0.0504,-0.0347,-0.0418,-0.0398,-0.033,-0.0288,-0.0277,-0.0259,-0.0218,-0.0211,-0.0223,-0.0184,-0.0179,-0.0169,-0.0185,-0.0159,-0.0158,-0.0152,-0.0153,-0.0154,-0.0205,0,0,0,0,0,0,-0.053,-0.0506,-0.0498,-0.0417,-0.0394,-0.0323,-0.0288,-0.0276,-0.0246,-0.0241,-0.0209,-0.0203,-0.0183,-0.0171,-0.0168,-0.0183,-0.0157,-0.0152,-0.0153,-0.0153,-0.0203,-0.0208,-0.0212,0,0,0,0,0,-0.0538,-0.052,-0.0498,-0.0479,-0.0377,-0.0323,-0.0314,-0.0267,-0.0247,-0.0247,-0.0219,-0.0204,-0.0174,-0.017,-0.0167,-0.0182,-0.0151,-0.0152,-0.0153,-0.0201,-0.0207,-0.0212,0,0,0,0,0,0,-0.0617,-0.051,-0.0484,-0.0435,-0.0389,-0.0312,-0.0298,-0.0271,-0.0248,-0.0243,-0.0209,-0.0203,-0.0199,-0.0184,-0.018,-0.0182,-0.0161,-0.0162,-0.0198,-0.0204,-0.0208,-0.0219,-0.0156,0,0,0,0,0,-0.0629,-0.0582,-0.0499,-0.0464,-0.0435,-0.0371,-0.0348,-0.0317,-0.0275,-0.0262,-0.024,-0.0218,-0.0203,-0.0197,-0.0182,-0.0187,-0.0149,-0.0194,-0.0198,-0.0202,-0.0208,-0.0159,-0.0159,-0.0157,-0.0157,-0.0157,0,0,-0.0653,-0.0585,-0.0562,-0.0478,-0.043,-0.0414,-0.0355,-0.0316,-0.0318,-0.0264,-0.0265,-0.0233,-0.0206,-0.0205,-0.0203,-0.0194,-0.0181,-0.0203,-0.0207,-0.0211,-0.016,-0.016,-0.016,-0.0158,-0.0158,-0.0158,0,0,-0.067,-0.0608,-0.058,-0.0548,-0.0478,-0.0444,-0.0436,-0.0369,-0.035,-0.0345,-0.0303,-0.0277,-0.0266,-0.0239,-0.0227,-0.0248,-0.0204,-0.0248,-0.0282,-0.0234,-0.0234,-0.0233,-0.0176,-0.017,-0.0252,-0.0252,-0.0252,0,-0.071,-0.0653,-0.0573,-0.055,-0.0534,-0.0463,-0.0462,-0.0438,-0.0388,-0.0378,-0.0357,-0.0309,-0.0283,-0.0268,-0.0272,-0.0259,-0.022,-0.0265,-0.0239,-0.0238,-0.0236,-0.0178,-0.0171,-0.0255,-0.0255,-0.0254,-0.0254,0,-0.0704,-0.0683,-0.0662,-0.0611,-0.0594,-0.0575,-0.053,-0.0519,-0.049,-0.0465,-0.0437,-0.0383,-0.035,-0.034,-0.0314,-0.0292,-0.0263,-0.0248,-0.0226,-0.0239,-0.0177,-0.0169,-0.0259,-0.0258,-0.0257,-0.0256,0,0,-0.0746,-0.0672,-0.0673,-0.0674,-0.0626,-0.0611,-0.0613,-0.0589,-0.0588,-0.0545,-0.0528,-0.0489,-0.0438,-0.0419,-0.0367,-0.0328,-0.0275,-0.0288,-0.0285,-0.0233,-0.0158,-0.0087,-0.007,-0.0252,-0.0251,-0.025,-0.0116,0,-0.0773,-0.0749,-0.0711,-0.0737,-0.073,-0.0691,-0.0706,-0.0686,-0.065,-0.0622,-0.0549,-0.0515,-0.0474,-0.0439,-0.0396,-0.0299,-0.0256,-0.0312,-0.0153,-0.0148,-0.0084,-0.0059,-0.0044,0.0081,-0.0107,-0.0106,-0.0105,0,-0.0792,-0.0775,-0.0784,-0.0794,-0.0788,-0.0808,-0.0803,-0.0805,-0.0753,-0.0715,-0.0655,-0.0587,-0.0507,-0.0467,-0.0321,-0.0356,-0.0268,-0.0196,-0.0189,-0.0101,-0.0061,0.0062,0.0105,0.025,-0.0091,-0.0092,-0.0093,0,-0.085,-0.0841,-0.0849,-0.0851,-0.0845,-0.086,-0.0864,-0.0838,-0.083,-0.0756,-0.0719,-0.0625,-0.0547,-0.044,-0.028,-0.0298,-0.0108,-0.0112,0.0033,0.0039,0.0094,0.0104,0.0295,-0.0017,-0.0018,-0.0018,-0.0019,0,-0.0892,-0.091,-0.088,-0.0893,-0.0944,-0.0918,-0.0956,-0.0935,-0.0886,-0.0864,-0.0764,-0.0695,-0.0535,-0.0401,-0.0282,-0.0079,-0.0103,0.0038,0.0081,0.0078,0.0085,0.0248,0.0299,-0.0013,-0.0014,-0.0015,-0.0016,0,-0.0954,-0.0922,-0.0951,-0.0955,-0.097,-0.1008,-0.1022,-0.1038,-0.097,-0.0921,-0.0888,-0.0732,-0.0544,-0.0375,-0.0169,-0.0061,0.0209,0.0181,0.0176,0.0216,0.0471,0.0517,0.0746,0.0836,0.0355,0.0357,0.0359,0,-0.0976,-0.0984,-0.101,-0.1054,-0.1063,-0.1107,-0.1143,-0.1093,-0.1078,-0.0934,-0.0901,-0.0704,-0.0557,-0.0222,0.0006,0.0246,0.0341,0.0402,0.0365,0.0507,0.059,0.0615,0.0675,0.0422,0.0425,0.0427,0.0428,0,-0.1039,-0.1036,-0.1064,-0.1153,-0.1203,-0.1241,-0.1258,-0.124,-0.1148,-0.1064,-0.0906,-0.0773,-0.0431,-0.0131,0.0194,0.0328,0.0515,0.0453,0.06,0.0666,0.0706,0.0805,0.0318,0.0447,0.0445,0.0444,0.0443,0.0442,-0.1096,-0.1134,-0.1178,-0.1272,-0.1323,-0.1347,-0.1355,-0.1312,-0.1245,-0.1073,-0.0941,-0.0705,-0.0259,0.0206,0.0381,0.0745,0.0697,0.0825,0.0873,0.0889,0.0971,0.0535,0.071,0.071,0.071,0.0709,0.0709,0,-0.1178,-0.1214,-0.1305,-0.1385,-0.1453,-0.1448,-0.1421,-0.1372,-0.1261,-0.1079,-0.091,-0.0416,0.0013,0.0425,0.0938,0.1137,0.1166,0.1233,0.126,0.1303,0.0923,0.092,0.115,0.115,0.1149,0.1149,0.1149,0.1149,-0.1224,-0.1313,-0.1359,-0.1491,-0.1536,-0.1562,-0.1525,-0.1386,-0.1234,-0.0908,-0.0622,-0.0412,0.0202,0.1017,0.148,0.1511,0.1677,0.1664,0.1771,0.1487,0.1451,0.1417,0.1429,0.1761,0.1762,0.2119,0.2123,0.2125]}],[{"header":{"parameterUnit":"m.s-1","parameterCategory":2,"la1":30.2991,"la2":30.254,"lo1":-89.0895,"lo2":-89.0444,"dy":0.0017,"dx":0.0017,"nx":28,"ny":28,"refTime":"2024-08-05T03:00:00:Z","depth":"2","parameterNumber":2,"parameterNumberName":"U-component_of_CURRENTS"},"data":[0,0,0,0,0,0,0,0,0,0,0,0,0,0,0,0,0,0,0,0,0,0,0,0,0,0,0,0,0,0,0,0,0,0,0,0,0,0,0,0,0,0,0,0,0,0,0,0,0,0,0,0,0,0,0,0,0,0,-0.2047,-0.2047,0,-0.2057,-0.2057,-0.2058,-0.2073,-0.2073,-0.2073,-0.2073,-0.2094,-0.2095,-0.2095,0,0,0,0,0,0,0,0,0,0,0,0,0,-0.2015,-0.2016,-0.2047,-0.2047,-0.2047,-0.2057,-0.2057,-0.2058,-0.2073,-0.2073,-0.2073,-0.2073,-0.2094,-0.2095,-0.2095,0,0,0,0,0,0,0,0,0,0,0,0,0,-0.203,-0.2016,-0.2047,-0.2054,-0.2054,-0.2057,-0.2057,-0.2058,-0.2073,-0.2073,-0.2073,-0.2073,-0.2094,-0.2095,-0.2095,-0.21,0,0,-0.2098,-0.2098,0,0,0,0,0,0,0,0,-0.2029,-0.2031,-0.2053,-0.2053,-0.2054,-0.2061,-0.2053,-0.2071,-0.2073,-0.2068,-0.2073,-0.2073,-0.2083,-0.2084,-0.209,-0.2101,-0.2102,-0.2098,-0.2099,-0.2099,-0.2099,0,0,0,0,0,0,0,-0.2028,-0.2031,-0.2054,-0.2053,-0.2053,-0.2047,-0.2049,-0.2057,-0.2077,-0.2069,-0.2069,-0.2066,-0.2083,-0.2089,-0.209,-0.2102,-0.2098,-0.2099,-0.2099,-0.21,-0.22,-0.2202,0,0,0,0,0,0,-0.2023,-0.203,-0.2053,-0.2054,-0.2038,-0.2047,-0.205,-0.2061,-0.2077,-0.2079,-0.2066,-0.2067,-0.2087,-0.2089,-0.2091,-0.2168,-0.2099,-0.21,-0.21,-0.2198,-0.2201,-0.2203,0,0,0,0,0,0,-0.2022,-0.2026,-0.2053,-0.2039,-0.2042,-0.2048,-0.2059,-0.2061,-0.2072,-0.2074,-0.2077,-0.2076,-0.2087,-0.209,-0.2136,-0.2166,-0.21,-0.2101,-0.2196,-0.2199,-0.2202,-0.2277,0,0,0,0,0,0,-0.2022,-0.2026,-0.203,-0.2039,-0.2042,-0.2068,-0.2059,-0.2061,-0.2069,-0.207,-0.2083,-0.2085,-0.2088,-0.2135,-0.2136,-0.2166,-0.2101,-0.2193,-0.2197,-0.2201,-0.2271,-0.2282,-0.2291,0,0,0,0,0,-0.2021,-0.2038,-0.2031,-0.2033,-0.2049,-0.2068,-0.207,-0.2075,-0.2069,-0.2084,-0.211,-0.2085,-0.2161,-0.2138,-0.2139,-0.2169,-0.2191,-0.2196,-0.2201,-0.2267,-0.228,-0.2291,0,0,0,0,0,0,-0.2006,-0.2041,-0.2033,-0.2053,-0.2061,-0.207,-0.208,-0.2079,-0.2108,-0.2112,-0.2115,-0.212,-0.2173,-0.2163,-0.2136,-0.2213,-0.2171,-0.2176,-0.2221,-0.2233,-0.2242,-0.2252,-0.2102,0,0,0,0,0,-0.2007,-0.2045,-0.2051,-0.2065,-0.2071,-0.2073,-0.2079,-0.2083,-0.2106,-0.2117,-0.2132,-0.2155,-0.2192,-0.2206,-0.2231,-0.2267,-0.2243,-0.2289,-0.2299,-0.2307,-0.2318,-0.2307,-0.2317,-0.2219,-0.2219,-0.2219,0,0,-0.2004,-0.2025,-0.2044,-0.2066,-0.2072,-0.2099,-0.2079,-0.2096,-0.2133,-0.2115,-0.2177,-0.219,-0.2212,-0.2268,-0.2288,-0.2263,-0.2324,-0.2313,-0.232,-0.2326,-0.2313,-0.2322,-0.2331,-0.2223,-0.2222,-0.2222,0,0,-0.2017,-0.2035,-0.2067,-0.209,-0.2105,-0.2115,-0.2121,-0.214,-0.2167,-0.2216,-0.2228,-0.2266,-0.2303,-0.2338,-0.2358,-0.2434,-0.2379,-0.2433,-0.2486,-0.2476,-0.2483,-0.2489,-0.2471,-0.2475,-0.2433,-0.2434,-0.2434,0,-0.2003,-0.2053,-0.2073,-0.2107,-0.2139,-0.2127,-0.2166,-0.2192,-0.2228,-0.2264,-0.2247,-0.233,-0.2343,-0.2424,-0.2459,-0.2456,-0.2432,-0.2436,-0.2487,-0.2492,-0.2497,-0.2477,-0.248,-0.2438,-0.2437,-0.2437,-0.2436,0,-0.2047,-0.2086,-0.2108,-0.2163,-0.2194,-0.223,-0.2266,-0.2305,-0.2323,-0.2345,-0.242,-0.244,-0.2481,-0.2499,-0.2506,-0.2562,-0.2528,-0.25,-0.245,-0.2511,-0.2487,-0.2488,-0.2444,-0.2442,-0.2441,-0.244,0,0,-0.2026,-0.2121,-0.213,-0.2172,-0.2238,-0.2265,-0.2346,-0.2413,-0.2461,-0.2489,-0.2552,-0.262,-0.2599,-0.2622,-0.2623,-0.2629,-0.2648,-0.2584,-0.2581,-0.2556,-0.2615,-0.2481,-0.247,-0.2617,-0.2618,-0.2619,-0.2583,0,-0.2051,-0.2121,-0.2184,-0.2267,-0.2305,-0.2369,-0.2448,-0.2509,-0.2548,-0.2602,-0.2628,-0.2672,-0.2654,-0.2663,-0.2671,-0.2657,-0.2657,-0.266,-0.257,-0.2568,-0.2432,-0.2469,-0.2309,-0.2253,-0.2585,-0.2585,-0.2585,0,-0.2076,-0.2126,-0.22,-0.2329,-0.2358,-0.2414,-0.2535,-0.2601,-0.2681,-0.2713,-0.2746,-0.2743,-0.2781,-0.2733,-0.2727,-0.2723,-0.268,-0.2658,-0.2655,-0.2505,-0.2437,-0.2248,-0.2244,-0.2588,-0.2588,-0.2587,-0.2587,0,-0.203,-0.2151,-0.2211,-0.2254,-0.2381,-0.2452,-0.2524,-0.2622,-0.2696,-0.2756,-0.2789,-0.2813,-0.2815,-0.278,-0.2731,-0.2722,-0.27,-0.267,-0.2515,-0.2505,-0.2339,-0.2311,-0.2657,-0.2657,-0.2657,-0.2657,-0.2657,0,-0.2039,-0.2093,-0.2194,-0.2227,-0.234,-0.2427,-0.2545,-0.2623,-0.272,-0.2759,-0.2817,-0.2808,-0.2823,-0.2804,-0.2749,-0.2631,-0.2702,-0.2529,-0.2487,-0.236,-0.2336,-0.2602,-0.2596,-0.2656,-0.2656,-0.2656,-0.2657,0,-0.1971,-0.2043,-0.2118,-0.2252,-0.2313,-0.2377,-0.2567,-0.2636,-0.2726,-0.277,-0.2783,-0.2823,-0.2744,-0.2758,-0.2694,-0.2634,-0.255,-0.2492,-0.2339,-0.2278,-0.2358,-0.2357,-0.2303,-0.2298,-0.2294,-0.229,-0.2287,0,-0.1942,-0.1959,-0.2098,-0.2172,-0.2243,-0.237,-0.2467,-0.2613,-0.2661,-0.2719,-0.2708,-0.2691,-0.2597,-0.2508,-0.2406,-0.2305,-0.2401,-0.2116,-0.2065,-0.2357,-0.2322,-0.2328,-0.2332,-0.1885,-0.1879,-0.1874,-0.187,0,-0.1891,-0.1925,-0.1998,-0.21,-0.2217,-0.2328,-0.2443,-0.2444,-0.2542,-0.2585,-0.2488,-0.2419,-0.2337,-0.213,-0.2069,-0.1982,-0.212,-0.2005,-0.2357,-0.1988,-0.1956,-0.1924,-0.1944,-0.1826,-0.1831,-0.1834,-0.1836,-0.1838,-0.1853,-0.1878,-0.1951,-0.2052,-0.2165,-0.2161,-0.2142,-0.2223,-0.221,-0.2143,-0.2174,-0.2058,-0.2047,-0.1804,-0.1689,-0.1626,-0.1753,-0.1702,-0.172,-0.1744,-0.169,-0.1651,-0.1454,-0.1456,-0.1458,-0.146,-0.1461,0,-0.1793,-0.1829,-0.1909,-0.1978,-0.1989,-0.2102,-0.2059,-0.198,-0.1843,-0.1867,-0.18,-0.159,-0.1459,-0.1459,-0.1281,-0.1235,-0.1262,-0.1187,-0.1241,-0.1284,-0.1323,-0.1252,-0.0897,-0.0896,-0.0894,-0.0892,0,0,-0.1772,-0.1799,-0.1817,-0.178,-0.1816,-0.1721,-0.1618,-0.1522,-0.1469,-0.1334,-0.1316,-0.1412,-0.1435,-0.1181,-0.1107,-0.0974,-0.1125,-0.0924,-0.1379,-0.1487,-0.1524,-0.1619,-0.1557,0,0,0,0,0]},{"header":{"parameterUnit":"m.s-1","parameterCategory":2,"la1":30.2991,"la2":30.254,"lo1":-89.0895,"lo2":-89.0444,"dy":0.0017,"dx":0.0017,"nx":28,"ny":28,"refTime":"2024-08-05T03:00:00:Z","depth":"2","parameterNumber":3,"parameterNumberName":"V-component_of_CURRENTS"},"data":[0,0,0,0,0,0,0,0,0,0,0,0,0,0,0,0,0,0,0,0,0,0,0,0,0,0,0,0,0,0,0,0,0,0,0,0,0,0,0,0,0,0,0,0,0,0,0,0,0,0,0,0,0,0,0,0,0,0,0.0083,0.0084,0,0.0165,0.0166,0.0166,0.0183,0.0182,0.0182,0.0182,0.019,0.0191,0.0191,0,0,0,0,0,0,0,0,0,0,0,0,0,0.0036,0.0036,0.0083,0.0084,0.0086,0.0165,0.0166,0.0167,0.0183,0.0182,0.0182,0.0182,0.019,0.0191,0.0191,0,0,0,0,0,0,0,0,0,0,0,0,0,0.0077,0.0036,0.0082,0.0106,0.011,0.0165,0.0166,0.0167,0.0183,0.0182,0.0182,0.0182,0.019,0.019,0.0191,0.0203,0,0,0.0193,0.0193,0,0,0,0,0,0,0,0,0.0074,0.0078,0.0101,0.0105,0.0109,0.0167,0.0153,0.0177,0.0183,0.015,0.0182,0.0181,0.0179,0.018,0.0191,0.0203,0.0204,0.0193,0.0194,0.0194,0.0194,0,0,0,0,0,0,0,0.0071,0.0075,0.0111,0.0103,0.0108,0.0147,0.015,0.0158,0.0161,0.0153,0.0156,0.0172,0.0179,0.0191,0.0192,0.0204,0.0193,0.0194,0.0194,0.0195,0.0199,0.0198,0,0,0,0,0,0,0.0065,0.0072,0.0108,0.0114,0.0095,0.0148,0.0152,0.0145,0.0162,0.0167,0.0172,0.0172,0.019,0.0191,0.0192,0.0166,0.0194,0.0195,0.0195,0.0199,0.0198,0.0198,0,0,0,0,0,0,0.0063,0.0066,0.0105,0.01,0.0108,0.0148,0.0141,0.0147,0.0151,0.0179,0.018,0.017,0.019,0.0191,0.018,0.0167,0.0195,0.0196,0.0199,0.0199,0.0198,0.0139,0,0,0,0,0,0,0.0061,0.0065,0.0047,0.0098,0.0108,0.0129,0.0142,0.0149,0.0165,0.0165,0.0177,0.0178,0.0189,0.0179,0.0181,0.0169,0.0196,0.02,0.0199,0.0198,0.0141,0.0136,0.0132,0,0,0,0,0,0.0059,0.0046,0.0045,0.005,0.0085,0.0129,0.0137,0.0163,0.0165,0.0164,0.0164,0.0177,0.0177,0.0179,0.0181,0.0169,0.02,0.0199,0.0199,0.0143,0.0137,0.0132,0,0,0,0,0,0,0.003,0.0049,0.0049,0.0044,0.0077,0.0133,0.0141,0.0157,0.016,0.0153,0.0168,0.0169,0.0158,0.0173,0.0175,0.0171,0.0193,0.0193,0.0151,0.0145,0.0141,0.0147,0.0197,0,0,0,0,0,0.0012,-0.0008,0.0037,0.003,0.0048,0.0089,0.0107,0.0125,0.0145,0.0146,0.0152,0.0157,0.0161,0.0158,0.0166,0.0159,0.0189,0.0156,0.0152,0.0148,0.0155,0.018,0.0178,0.0196,0.0196,0.0196,0,0,-0.0001,0.0008,-0.0004,0.002,0.0049,0.0064,0.0097,0.0123,0.0121,0.0145,0.0129,0.014,0.0156,0.0147,0.0144,0.0154,0.0159,0.0147,0.0143,0.0153,0.0179,0.0177,0.0176,0.0195,0.0196,0.0196,0,0,-0.0019,-0.0026,-0.004,-0.0018,0.0019,0.0042,0.0045,0.0088,0.0091,0.0085,0.0101,0.0106,0.0104,0.0119,0.0125,0.0105,0.0135,0.0102,0.0081,0.0103,0.0102,0.0102,0.0137,0.0139,0.0098,0.0098,0.0098,0,-0.0039,-0.0053,-0.0031,-0.0025,-0.0018,0.0027,0.0026,0.0042,0.0068,0.0071,0.0069,0.0086,0.0096,0.01,0.0089,0.0095,0.0114,0.0095,0.0097,0.0097,0.0098,0.0134,0.0138,0.0095,0.0095,0.0096,0.0096,0,-0.0055,-0.007,-0.0066,-0.0067,-0.0053,-0.0045,-0.0014,-0.0012,-0.0009,0.0015,0.0018,0.0035,0.0049,0.0052,0.0058,0.0066,0.0081,0.0088,0.0108,0.0092,0.0131,0.0136,0.0091,0.0092,0.0093,0.0094,0,0,-0.0106,-0.009,-0.0094,-0.0112,-0.0082,-0.0079,-0.0076,-0.0059,-0.0063,-0.004,-0.0042,-0.0026,-0.0001,0.0009,0.0027,0.0047,0.0062,0.0059,0.0062,0.009,0.0116,0.0157,0.0167,0.0059,0.006,0.006,0.0142,0,-0.0134,-0.0153,-0.0133,-0.0166,-0.0174,-0.0144,-0.015,-0.013,-0.011,-0.01,-0.0056,-0.0054,-0.0022,-0.0029,0.0002,0.0049,0.0073,0.004,0.0132,0.0136,0.017,0.0174,0.0157,0.0231,0.0148,0.0149,0.0149,0,-0.0159,-0.018,-0.0209,-0.0236,-0.0236,-0.0248,-0.0258,-0.0255,-0.0205,-0.019,-0.015,-0.0111,-0.0067,-0.0053,0.0041,0.0014,0.0059,0.01,0.0104,0.0169,0.0186,0.0235,0.0244,0.0159,0.0158,0.0157,0.0157,0,-0.0217,-0.024,-0.028,-0.0285,-0.0292,-0.031,-0.0319,-0.0281,-0.0292,-0.0244,-0.0241,-0.0162,-0.0142,-0.0064,0.0047,0.0028,0.0159,0.0143,0.023,0.0234,0.0255,0.026,0.0201,0.0201,0.0201,0.02,0.02,0,-0.0254,-0.029,-0.0317,-0.034,-0.0416,-0.0381,-0.0431,-0.0417,-0.0386,-0.0395,-0.0298,-0.0289,-0.015,-0.005,0.0042,0.0176,0.0162,0.0238,0.0259,0.0235,0.0236,0.0202,0.0201,0.0203,0.0203,0.0202,0.0202,0,-0.0285,-0.0296,-0.0368,-0.0415,-0.0439,-0.0497,-0.0537,-0.0563,-0.0508,-0.0515,-0.0509,-0.0387,-0.0259,-0.0088,0.0058,0.0163,0.0287,0.0332,0.0309,0.0326,0.0341,0.0336,0.0418,0.042,0.0422,0.0424,0.0425,0,-0.0291,-0.0318,-0.0444,-0.0526,-0.0554,-0.0626,-0.0674,-0.0646,-0.0653,-0.0581,-0.0586,-0.0456,-0.0357,-0.0078,0.0126,0.0334,0.0323,0.0437,0.0397,0.0352,0.0364,0.0356,0.0349,0.0401,0.0402,0.0403,0.0403,0,-0.0314,-0.0368,-0.046,-0.063,-0.0726,-0.0806,-0.085,-0.0864,-0.0806,-0.0777,-0.0698,-0.0609,-0.0332,-0.0084,0.0217,0.0323,0.0409,0.0458,0.0425,0.0349,0.0343,0.0352,0.0344,0.0411,0.041,0.0409,0.0409,0.0409,-0.0354,-0.0459,-0.0601,-0.077,-0.0881,-0.0953,-0.0988,-0.0986,-0.0978,-0.0876,-0.0785,-0.06,-0.0344,0.0075,0.0276,0.0473,0.0446,0.0503,0.0497,0.0491,0.0475,0.0472,0.0562,0.0562,0.0562,0.0562,0.0563,0,-0.0389,-0.0544,-0.0723,-0.0918,-0.1039,-0.1068,-0.1089,-0.107,-0.1033,-0.0906,-0.0791,-0.0501,-0.0202,0.0063,0.0378,0.0555,0.0526,0.0579,0.0515,0.0507,0.0501,0.0482,0.0573,0.0573,0.0574,0.0574,0,0,-0.0423,-0.0613,-0.0742,-0.1008,-0.1135,-0.1218,-0.1215,-0.1151,-0.1029,-0.0892,-0.0724,-0.0505,-0.0173,0.0054,0.0277,0.0442,0.042,0.0447,0.0422,0.0312,0.0304,0.0444,0.0406,0,0,0,0,0]}],[{"header":{"parameterUnit":"m.s-1","parameterCategory":2,"la1":30.2991,"la2":30.254,"lo1":-89.0895,"lo2":-89.0444,"dy":0.0017,"dx":0.0017,"nx":28,"ny":28,"refTime":"2024-08-05T03:00:00:Z","depth":"4","parameterNumber":2,"parameterNumberName":"U-component_of_CURRENTS"},"data":[0,0,0,0,0,0,0,0,0,0,0,0,0,0,0,0,0,0,0,0,0,0,0,0,0,0,0,0,0,0,0,0,0,0,0,0,0,0,0,0,0,0,0,0,0,0,0,0,0,0,0,0,0,0,0,0,0,0,-0.0912,-0.0912,0,-0.0938,-0.0939,-0.0939,-0.0951,-0.0951,-0.0951,-0.0951,-0.0989,-0.099,-0.0991,0,0,0,0,0,0,0,0,0,0,0,0,0,-0.0868,-0.0869,-0.0912,-0.0912,-0.0913,-0.0938,-0.0939,-0.0939,-0.0951,-0.0951,-0.0951,-0.0951,-0.0989,-0.099,-0.0991,0,0,0,0,0,0,0,0,0,0,0,0,0,-0.089,-0.0869,-0.0912,-0.0922,-0.0923,-0.0938,-0.0939,-0.0939,-0.0951,-0.0951,-0.0951,-0.0951,-0.0989,-0.099,-0.0992,-0.1001,0,0,-0.0996,-0.0997,0,0,0,0,0,0,0,0,-0.0888,-0.0891,-0.092,-0.0921,-0.0923,-0.0942,-0.0937,-0.096,-0.0951,-0.094,-0.0951,-0.0951,-0.0975,-0.0977,-0.0982,-0.1003,-0.1004,-0.0996,-0.0997,-0.0998,-0.0998,0,0,0,0,0,0,0,-0.0887,-0.089,-0.0922,-0.092,-0.0922,-0.0924,-0.0927,-0.0942,-0.0957,-0.0941,-0.0942,-0.0945,-0.0975,-0.098,-0.0983,-0.1005,-0.0996,-0.0998,-0.0999,-0.0999,-0.1121,-0.1124,0,0,0,0,0,0,-0.0885,-0.0889,-0.0921,-0.0923,-0.0906,-0.0925,-0.0928,-0.0935,-0.0956,-0.096,-0.0945,-0.0946,-0.0977,-0.0981,-0.0984,-0.1066,-0.0998,-0.0999,-0.1,-0.1119,-0.1122,-0.1124,0,0,0,0,0,0,-0.0884,-0.0888,-0.092,-0.0906,-0.0911,-0.0926,-0.0933,-0.0936,-0.0961,-0.096,-0.0963,-0.097,-0.0978,-0.0982,-0.1024,-0.1065,-0.1,-0.1002,-0.1116,-0.112,-0.1123,-0.1186,0,0,0,0,0,0,-0.0883,-0.0887,-0.0895,-0.0906,-0.0911,-0.0946,-0.0933,-0.0936,-0.0962,-0.0963,-0.0982,-0.0984,-0.0978,-0.1022,-0.1026,-0.1066,-0.1003,-0.1113,-0.1118,-0.1122,-0.1181,-0.1191,-0.12,0,0,0,0,0,-0.0881,-0.0888,-0.0895,-0.0899,-0.092,-0.0947,-0.0951,-0.096,-0.0963,-0.0982,-0.1,-0.0985,-0.1052,-0.1025,-0.1029,-0.1071,-0.1111,-0.1117,-0.1122,-0.1177,-0.1189,-0.12,0,0,0,0,0,0,-0.0871,-0.089,-0.0898,-0.0911,-0.0937,-0.095,-0.0964,-0.0975,-0.1003,-0.1007,-0.1009,-0.1013,-0.1067,-0.1064,-0.1034,-0.1121,-0.1082,-0.1088,-0.1123,-0.1134,-0.1144,-0.1138,-0.1004,0,0,0,0,0,-0.0873,-0.0889,-0.0909,-0.0925,-0.0938,-0.0958,-0.0971,-0.0981,-0.1004,-0.1016,-0.1035,-0.1058,-0.1088,-0.1107,-0.1127,-0.1172,-0.1161,-0.1205,-0.1215,-0.1222,-0.1223,-0.1255,-0.1267,-0.1141,-0.1141,-0.1141,0,0,-0.0875,-0.0888,-0.0897,-0.0925,-0.0944,-0.0975,-0.0967,-0.0995,-0.1032,-0.1016,-0.1076,-0.1091,-0.1108,-0.116,-0.1184,-0.1164,-0.1252,-0.1229,-0.1235,-0.1231,-0.1261,-0.1273,-0.1284,-0.1145,-0.1144,-0.1144,0,0,-0.0886,-0.09,-0.0918,-0.0942,-0.0975,-0.0994,-0.101,-0.1043,-0.1068,-0.1126,-0.1126,-0.1155,-0.1217,-0.1222,-0.1236,-0.1309,-0.13,-0.134,-0.1384,-0.1416,-0.1426,-0.1434,-0.1426,-0.1433,-0.1346,-0.1346,-0.1346,0,-0.0889,-0.091,-0.0929,-0.0955,-0.0981,-0.101,-0.1044,-0.1078,-0.1124,-0.1152,-0.1158,-0.1244,-0.124,-0.1298,-0.1324,-0.1327,-0.1345,-0.1335,-0.1426,-0.1434,-0.1442,-0.1431,-0.1439,-0.135,-0.1349,-0.1349,-0.1349,0,-0.091,-0.0935,-0.0951,-0.0999,-0.1034,-0.1065,-0.1115,-0.1159,-0.1202,-0.1234,-0.1312,-0.1322,-0.1366,-0.1382,-0.1376,-0.1442,-0.1435,-0.143,-0.139,-0.1458,-0.1443,-0.1449,-0.1355,-0.1354,-0.1353,-0.1352,0,0,-0.0893,-0.0953,-0.0961,-0.0991,-0.1057,-0.1088,-0.1161,-0.1229,-0.1278,-0.1341,-0.1403,-0.1453,-0.1461,-0.1477,-0.1479,-0.1506,-0.1554,-0.1506,-0.1505,-0.1484,-0.1622,-0.1523,-0.152,-0.1589,-0.1591,-0.1593,-0.1584,0,-0.0906,-0.0958,-0.0991,-0.1058,-0.1091,-0.1147,-0.1216,-0.1284,-0.1346,-0.1412,-0.1447,-0.1506,-0.1502,-0.1526,-0.1558,-0.1554,-0.1578,-0.1555,-0.157,-0.1569,-0.1463,-0.1526,-0.1599,-0.1588,-0.159,-0.1591,-0.1592,0,-0.0909,-0.0947,-0.1006,-0.109,-0.1112,-0.1167,-0.1274,-0.1332,-0.1426,-0.1478,-0.1546,-0.1575,-0.1619,-0.1606,-0.1651,-0.1653,-0.1646,-0.1641,-0.1641,-0.153,-0.1483,-0.1511,-0.1602,-0.1602,-0.1601,-0.16,-0.1599,0,-0.0874,-0.0956,-0.1005,-0.1031,-0.1133,-0.1184,-0.1249,-0.1354,-0.1396,-0.1511,-0.1557,-0.1634,-0.1658,-0.1694,-0.1682,-0.1687,-0.1719,-0.171,-0.1613,-0.1604,-0.1664,-0.1655,-0.1745,-0.1745,-0.1745,-0.1745,-0.1745,0,-0.085,-0.089,-0.0997,-0.1015,-0.1095,-0.1177,-0.1262,-0.1337,-0.1424,-0.1478,-0.158,-0.163,-0.1692,-0.1714,-0.1709,-0.1673,-0.1739,-0.1624,-0.1606,-0.1689,-0.1684,-0.1667,-0.1658,-0.1745,-0.1745,-0.1745,-0.1745,0,-0.0787,-0.0847,-0.0912,-0.1031,-0.107,-0.1129,-0.1243,-0.1284,-0.1401,-0.1468,-0.1503,-0.1618,-0.1676,-0.1706,-0.1735,-0.1678,-0.1663,-0.1632,-0.1699,-0.1684,-0.1517,-0.1512,-0.1525,-0.1521,-0.1518,-0.1516,-0.1514,0,-0.0763,-0.0782,-0.0909,-0.0937,-0.0989,-0.1086,-0.113,-0.1253,-0.1285,-0.1454,-0.1457,-0.1566,-0.1638,-0.1604,-0.1648,-0.163,-0.1614,-0.157,-0.1565,-0.1519,-0.1501,-0.15,-0.1498,-0.151,-0.1509,-0.1508,-0.1508,0,-0.0709,-0.0755,-0.0802,-0.0859,-0.0913,-0.0981,-0.1057,-0.1081,-0.1218,-0.1321,-0.1408,-0.1463,-0.1522,-0.1556,-0.1544,-0.1532,-0.1582,-0.154,-0.1546,-0.1542,-0.1501,-0.1485,-0.1487,-0.1498,-0.1499,-0.15,-0.1501,0,-0.0676,-0.069,-0.0735,-0.0778,-0.0824,-0.0859,-0.0938,-0.0999,-0.106,-0.1243,-0.1267,-0.1418,-0.1517,-0.1505,-0.1499,-0.1477,-0.1461,-0.1393,-0.1406,-0.1418,-0.1386,-0.1319,-0.125,0,0,0,0,0,-0.0649,-0.0626,-0.0644,-0.0685,-0.0718,-0.075,-0.0858,-0.0937,-0.108,-0.1102,-0.1187,-0.1257,-0.1317,-0.138,-0.1336,-0.1425,-0.144,-0.1363,-0.1363,-0.1444,-0.1455,-0.1428,0,0,0,0,0,0,-0.0614,-0.0623,-0.061,-0.0577,-0.0579,-0.0619,-0.0695,-0.0809,-0.0841,-0.0998,-0.1043,-0.1144,-0.1215,-0.1317,-0.1298,-0.1308,-0.1275,-0.1432,-0.1428,-0.1437,-0.1448,-0.1457,-0.1432,0,0,0,0,0]},{"header":{"parameterUnit":"m.s-1","parameterCategory":2,"la1":30.2991,"la2":30.254,"lo1":-89.0895,"lo2":-89.0444,"dy":0.0017,"dx":0.0017,"nx":28,"ny":28,"refTime":"2024-08-05T03:00:00:Z","depth":"4","parameterNumber":3,"parameterNumberName":"V-component_of_CURRENTS"},"data":[0,0,0,0,0,0,0,0,0,0,0,0,0,0,0,0,0,0,0,0,0,0,0,0,0,0,0,0,0,0,0,0,0,0,0,0,0,0,0,0,0,0,0,0,0,0,0,0,0,0,0,0,0,0,0,0,0,0,-0.0173,-0.0173,0,-0.0137,-0.0136,-0.0136,-0.0108,-0.0108,-0.0107,-0.0107,-0.0033,-0.0031,-0.0029,0,0,0,0,0,0,0,0,0,0,0,0,0,-0.0159,-0.0159,-0.0174,-0.0173,-0.0173,-0.0137,-0.0136,-0.0136,-0.0108,-0.0108,-0.0107,-0.0107,-0.0034,-0.0031,-0.0029,0,0,0,0,0,0,0,0,0,0,0,0,0,-0.0146,-0.0159,-0.0174,-0.0157,-0.0155,-0.0137,-0.0136,-0.0135,-0.0108,-0.0108,-0.0107,-0.0107,-0.0035,-0.0032,-0.0029,-0.0012,0,0,-0.002,-0.0019,0,0,0,0,0,0,0,0,-0.0147,-0.0146,-0.0159,-0.0158,-0.0156,-0.0129,-0.0104,-0.0093,-0.0108,-0.0123,-0.0107,-0.0107,-0.0063,-0.0058,-0.0048,-0.0008,-0.0005,-0.002,-0.0018,-0.0017,-0.0016,0,0,0,0,0,0,0,-0.0148,-0.0147,-0.0156,-0.0159,-0.0157,-0.013,-0.0129,-0.0101,-0.0091,-0.0121,-0.012,-0.012,-0.0062,-0.0051,-0.0046,-0.0004,-0.002,-0.0017,-0.0015,-0.0014,0.0061,0.0061,0,0,0,0,0,0,-0.0161,-0.0148,-0.0158,-0.0156,-0.0154,-0.0131,-0.0129,-0.0136,-0.0092,-0.0087,-0.012,-0.0119,-0.0056,-0.005,-0.0044,-0.0033,-0.0017,-0.0014,-0.0012,0.0061,0.0061,0.0061,0,0,0,0,0,0,-0.0161,-0.0162,-0.0159,-0.0153,-0.0151,-0.0132,-0.0139,-0.0135,-0.0123,-0.0092,-0.0085,-0.0113,-0.0056,-0.0048,-0.0021,-0.0029,-0.0013,-0.001,0.006,0.0061,0.0061,-0.0004,0,0,0,0,0,0,-0.016,-0.0162,-0.0171,-0.0154,-0.0152,-0.0152,-0.0139,-0.0134,-0.0125,-0.0122,-0.0083,-0.0077,-0.0055,-0.0026,-0.0019,-0.0025,-0.0008,0.006,0.0061,0.0061,-0.0002,-0.0006,-0.0009,0,0,0,0,0,-0.016,-0.0174,-0.0172,-0.0173,-0.0165,-0.0153,-0.0149,-0.0133,-0.0124,-0.0121,-0.0096,-0.0078,-0.0018,-0.0024,-0.0015,-0.0021,0.006,0.006,0.0061,-0.0,-0.0005,-0.0009,0,0,0,0,0,0,-0.0171,-0.0172,-0.017,-0.0183,-0.0171,-0.0149,-0.0148,-0.0134,-0.0111,-0.0111,-0.0075,-0.0066,-0.0046,-0.002,-0.0027,0.0005,0.0025,0.0027,-0.0025,-0.0029,-0.0032,-0.0041,-0.0005,0,0,0,0,0,-0.018,-0.0194,-0.0181,-0.0193,-0.0188,-0.0167,-0.016,-0.0151,-0.013,-0.0119,-0.009,-0.006,-0.0036,-0.0023,0.0005,0.0022,0.0054,0.0026,0.0023,0.0019,0.002,0.0071,0.0071,0.0063,0.0063,0.0063,0,0,-0.0191,-0.0192,-0.0201,-0.0197,-0.0187,-0.0187,-0.0162,-0.0158,-0.0159,-0.0115,-0.0102,-0.007,-0.0033,-0.0017,-0.0006,0.0002,0.0035,0.002,0.0017,0.0019,0.0071,0.0072,0.0073,0.0063,0.0063,0.0063,0,0,-0.0215,-0.0217,-0.0232,-0.0224,-0.0216,-0.0204,-0.0204,-0.018,-0.0171,-0.0153,-0.0125,-0.0103,-0.0055,-0.0042,-0.0026,-0.0029,0.0016,-0.0011,-0.0039,0.001,0.0011,0.0012,0.0033,0.0037,-0.0015,-0.0015,-0.0015,0,-0.0225,-0.0245,-0.0233,-0.0239,-0.0241,-0.0214,-0.0225,-0.021,-0.0182,-0.0175,-0.0156,-0.0094,-0.0072,-0.0056,-0.0059,-0.0041,-0.0002,-0.0032,0.0004,0.0006,0.0009,0.003,0.0035,-0.0018,-0.0017,-0.0017,-0.0017,0,-0.0254,-0.0269,-0.0275,-0.0281,-0.0279,-0.0284,-0.0267,-0.0261,-0.0242,-0.022,-0.0191,-0.0152,-0.0116,-0.0105,-0.0084,-0.0059,-0.0035,-0.0007,0.0009,0.0006,0.0029,0.0035,-0.0022,-0.0021,-0.002,-0.0019,0,0,-0.0273,-0.0294,-0.0295,-0.0312,-0.0304,-0.0307,-0.0313,-0.0306,-0.0309,-0.0265,-0.0257,-0.0216,-0.018,-0.0159,-0.0126,-0.0087,-0.0055,-0.0039,-0.0035,-0.0029,0.0049,0.0052,0.006,-0.0006,-0.0005,-0.0004,0.005,0,-0.0297,-0.0331,-0.0332,-0.0363,-0.0378,-0.0365,-0.0376,-0.0367,-0.0341,-0.0323,-0.0274,-0.0247,-0.0204,-0.0188,-0.0141,-0.007,-0.0036,-0.0073,0.0061,0.0064,0.006,0.0068,0.0,0.0055,0.0056,0.0057,0.0058,0,-0.0317,-0.0342,-0.0381,-0.0417,-0.0422,-0.0434,-0.0448,-0.0453,-0.0422,-0.0399,-0.0352,-0.0301,-0.025,-0.0208,-0.0087,-0.0102,-0.0034,0.0022,0.0026,0.0059,0.0081,0.0068,0.007,0.0069,0.0068,0.0067,0.0067,0,-0.0336,-0.0375,-0.0414,-0.0422,-0.0453,-0.0471,-0.0484,-0.0472,-0.0483,-0.044,-0.0427,-0.0344,-0.0307,-0.0195,-0.0081,-0.0072,0.0059,0.008,0.0141,0.0141,0.0148,0.0147,0.0163,0.0163,0.0163,0.0163,0.0162,0,-0.0354,-0.0386,-0.0428,-0.0446,-0.05,-0.0504,-0.0544,-0.054,-0.0535,-0.0542,-0.0463,-0.0436,-0.0292,-0.02,-0.009,0.0044,0.0053,0.0137,0.0162,0.0117,0.0112,0.0151,0.0149,0.0165,0.0164,0.0164,0.0163,0,-0.0357,-0.0389,-0.0438,-0.0485,-0.051,-0.0542,-0.0595,-0.062,-0.0601,-0.0607,-0.0595,-0.0499,-0.0369,-0.0234,-0.0065,0.0019,0.0147,0.0189,0.0109,0.0128,0.0195,0.0189,0.0261,0.0262,0.0263,0.0263,0.0264,0,-0.0356,-0.0384,-0.0461,-0.051,-0.0533,-0.059,-0.0637,-0.0651,-0.0666,-0.0639,-0.0634,-0.0527,-0.0445,-0.0207,-0.0061,0.0136,0.0168,0.0217,0.0227,0.0191,0.0209,0.0202,0.0195,0.0264,0.0265,0.0265,0.0265,0,-0.0353,-0.0385,-0.0423,-0.0522,-0.0588,-0.0664,-0.0714,-0.0732,-0.074,-0.073,-0.0652,-0.0531,-0.0389,-0.0202,-0.0053,0.0092,0.0181,0.0225,0.0224,0.0234,0.0196,0.0211,0.0204,0.0267,0.0267,0.0267,0.0267,0,-0.0344,-0.0372,-0.0437,-0.0519,-0.0619,-0.0702,-0.0736,-0.0746,-0.076,-0.0717,-0.069,-0.0534,-0.0445,-0.0225,-0.0083,0.0056,0.0096,0.0135,0.0141,0.014,0.0095,0.0029,0.0072,0,0,0,0,0,-0.0328,-0.0361,-0.0439,-0.0538,-0.0642,-0.0698,-0.0774,-0.0796,-0.0799,-0.0748,-0.0717,-0.058,-0.0357,-0.0253,-0.011,-0.0075,0.0111,0.0095,0.0156,0.0279,0.0277,0.0247,0,0,0,0,0,0,-0.0327,-0.0381,-0.0418,-0.0535,-0.0608,-0.072,-0.077,-0.0784,-0.0741,-0.0721,-0.0593,-0.054,-0.0313,-0.0426,-0.0099,-0.0059,-0.0002,0.0201,0.0204,0.0281,0.0278,0.0276,0.0245,0,0,0,0,0]}]]